TimeCDT,TemperatureF,Dew PointF,Humidity,Sea Level PressureIn,VisibilityMPH,Wind Direction,Wind SpeedMPH,Gust SpeedMPH,PrecipitationIn,Events,Conditions,WindDirDegrees,DateUTC
12:15 AM,54.5,52.3,92,30.18,10.0,Calm,Calm,-,N/A,,Scattered Clouds,0,2013-08-17 05:15:00
12:35 AM,54.1,52.3,94,30.18,10.0,Calm,Calm,-,N/A,,Scattered Clouds,0,2013-08-17 05:35:00
12:55 AM,53.6,52.0,94,30.18,10.0,Calm,Calm,-,N/A,,Mostly Cloudy,0,2013-08-17 05:55:00
1:15 AM,52.7,51.1,94,30.19,10.0,Calm,Calm,-,N/A,,Scattered Clouds,0,2013-08-17 06:15:00
1:35 AM,52.0,50.4,94,30.18,10.0,Calm,Calm,-,N/A,,Scattered Clouds,0,2013-08-17 06:35:00
1:55 AM,52.0,50.5,95,30.18,10.0,Calm,Calm,-,N/A,,Scattered Clouds,0,2013-08-17 06:55:00
2:15 AM,52.2,50.9,95,30.18,10.0,Calm,Calm,-,N/A,,Scattered Clouds,0,2013-08-17 07:15:00
2:35 AM,51.8,50.2,94,30.18,10.0,Calm,Calm,-,N/A,,Scattered Clouds,0,2013-08-17 07:35:00
2:55 AM,51.3,50.0,95,30.18,10.0,Calm,Calm,-,N/A,,Scattered Clouds,0,2013-08-17 07:55:00
3:15 AM,51.1,49.8,95,30.19,10.0,Calm,Calm,-,N/A,,Scattered Clouds,0,2013-08-17 08:15:00
3:35 AM,50.5,49.3,95,30.19,10.0,Calm,Calm,-,N/A,,Scattered Clouds,0,2013-08-17 08:35:00
3:55 AM,50.5,49.3,95,30.19,10.0,Calm,Calm,-,N/A,,Scattered Clouds,0,2013-08-17 08:55:00
4:15 AM,49.1,47.7,95,30.19,10.0,Calm,Calm,-,N/A,,Scattered Clouds,0,2013-08-17 09:15:00
4:35 AM,50.0,48.9,96,30.19,10.0,Calm,Calm,-,N/A,,Scattered Clouds,0,2013-08-17 09:35:00
4:55 AM,51.3,50.2,96,30.19,10.0,Calm,Calm,-,N/A,,Scattered Clouds,0,2013-08-17 09:55:00
5:14 AM,50.9,49.6,95,30.19,10.0,Calm,Calm,-,N/A,,Scattered Clouds,0,2013-08-17 10:14:00
5:35 AM,51.3,50.0,95,30.20,10.0,Calm,Calm,-,N/A,,Scattered Clouds,0,2013-08-17 10:35:00
5:55 AM,50.0,48.7,95,30.20,10.0,Calm,Calm,-,N/A,,Scattered Clouds,0,2013-08-17 10:55:00
6:15 AM,51.4,50.4,96,30.20,10.0,Calm,Calm,-,N/A,,Scattered Clouds,0,2013-08-17 11:15:00
6:35 AM,52.3,51.3,96,30.20,7.0,Calm,Calm,-,N/A,,Scattered Clouds,0,2013-08-17 11:35:00
6:55 AM,52.5,51.3,95,30.21,7.0,Calm,Calm,-,N/A,,Clear,0,2013-08-17 11:55:00
7:14 AM,54.1,53.1,96,30.20,10.0,Calm,Calm,-,N/A,,Clear,0,2013-08-17 12:14:00
7:35 AM,56.3,55.0,96,30.20,10.0,Calm,Calm,-,N/A,,Scattered Clouds,0,2013-08-17 12:35:00
7:54 AM,57.4,56.3,96,30.21,10.0,South,5.8,-,N/A,,Clear,170,2013-08-17 12:54:00
8:15 AM,59.7,57.9,94,30.20,10.0,South,5.8,-,N/A,,Clear,180,2013-08-17 13:15:00
8:35 AM,62.2,57.9,86,30.21,10.0,South,5.8,-,N/A,,Clear,180,2013-08-17 13:35:00
8:55 AM,65.1,57.2,75,30.21,10.0,South,8.1,-,N/A,,Clear,190,2013-08-17 13:55:00
9:15 AM,67.1,56.7,69,30.20,10.0,SSW,6.9,-,N/A,,Clear,200,2013-08-17 14:15:00
9:35 AM,68.5,57.0,67,30.20,10.0,South,8.1,-,N/A,,Clear,190,2013-08-17 14:35:00
9:54 AM,70.3,56.8,62,30.20,10.0,South,9.2,-,N/A,,Clear,190,2013-08-17 14:54:00
10:15 AM,72.5,56.5,57,30.20,10.0,SSW,10.4,-,N/A,,Clear,210,2013-08-17 15:15:00
10:35 AM,73.4,56.3,55,30.20,10.0,South,8.1,-,N/A,,Clear,190,2013-08-17 15:35:00
10:54 AM,74.1,56.3,54,30.20,10.0,SSW,8.1,-,N/A,,Clear,210,2013-08-17 15:54:00
11:15 AM,75.0,55.9,51,30.20,10.0,SSW,9.2,-,N/A,,Clear,200,2013-08-17 16:15:00
11:35 AM,75.4,55.6,50,30.20,10.0,South,9.2,-,N/A,,Clear,180,2013-08-17 16:35:00
11:54 AM,75.9,54.5,47,30.19,10.0,SSW,11.5,18.4,N/A,,Clear,210,2013-08-17 16:54:00
12:15 PM,76.5,53.2,44,30.18,10.0,SSW,10.4,16.1,N/A,,Clear,200,2013-08-17 17:15:00
12:35 PM,76.6,53.4,44,30.18,10.0,SSW,8.1,18.4,N/A,,Scattered Clouds,200,2013-08-17 17:35:00
12:54 PM,77.7,51.6,40,30.18,10.0,South,11.5,17.3,N/A,,Clear,190,2013-08-17 17:54:00
1:15 PM,77.9,51.3,39,30.17,10.0,SSW,9.2,18.4,N/A,,Clear,210,2013-08-17 18:15:00
1:35 PM,78.8,51.4,38,30.17,10.0,SSW,11.5,-,N/A,,Clear,210,2013-08-17 18:35:00
1:55 PM,78.4,50.9,38,30.16,10.0,SSW,8.1,-,N/A,,Clear,210,2013-08-17 18:55:00
2:15 PM,79.0,50.4,37,30.15,10.0,SSW,9.2,18.4,N/A,,Clear,200,2013-08-17 19:15:00
2:35 PM,79.3,51.6,38,30.15,10.0,SW,6.9,19.6,N/A,,Clear,220,2013-08-17 19:35:00
2:54 PM,79.2,52.9,40,30.14,10.0,SW,9.2,17.3,N/A,,Clear,220,2013-08-17 19:54:00
3:15 PM,79.7,52.0,38,30.14,10.0,SSW,12.7,-,N/A,,Scattered Clouds,210,2013-08-17 20:15:00
3:35 PM,79.2,53.1,40,30.14,10.0,South,10.4,18.4,N/A,,Clear,180,2013-08-17 20:35:00
3:55 PM,79.5,52.2,38,30.14,10.0,SSW,10.4,18.4,N/A,,Clear,210,2013-08-17 20:55:00
4:15 PM,79.0,52.0,39,30.14,10.0,SSW,9.2,18.4,N/A,,Clear,200,2013-08-17 21:15:00
4:34 PM,78.3,52.5,41,30.14,10.0,South,8.1,-,N/A,,Clear,190,2013-08-17 21:34:00
4:55 PM,79.0,52.7,40,30.13,10.0,SSW,10.4,16.1,N/A,,Clear,210,2013-08-17 21:55:00
5:15 PM,79.0,52.5,40,30.12,10.0,SSW,10.4,-,N/A,,Scattered Clouds,200,2013-08-17 22:15:00
5:35 PM,79.2,53.4,41,30.12,10.0,SSW,11.5,-,N/A,,Scattered Clouds,210,2013-08-17 22:35:00
5:55 PM,78.3,52.7,41,30.11,10.0,SSW,10.4,-,N/A,,Scattered Clouds,200,2013-08-17 22:55:00
6:15 PM,78.3,53.6,42,30.11,10.0,South,6.9,-,N/A,,Clear,180,2013-08-17 23:15:00
6:35 PM,77.4,53.6,44,30.11,10.0,SSW,5.8,-,N/A,,Clear,200,2013-08-17 23:35:00
6:55 PM,76.6,53.2,44,30.11,10.0,SSW,8.1,-,N/A,,Clear,210,2013-08-17 23:55:00
7:15 PM,76.1,53.4,45,30.11,10.0,SSW,6.9,-,N/A,,Clear,200,2013-08-18 00:15:00
7:35 PM,74.5,53.8,48,30.11,10.0,SSW,5.8,-,N/A,,Clear,200,2013-08-18 00:35:00
7:55 PM,72.0,54.5,54,30.11,10.0,South,4.6,-,N/A,,Clear,180,2013-08-18 00:55:00
8:15 PM,70.7,54.5,56,30.11,10.0,South,4.6,-,N/A,,Clear,180,2013-08-18 01:15:00
8:35 PM,68.7,54.7,61,30.11,10.0,South,3.5,-,N/A,,Clear,190,2013-08-18 01:35:00
8:55 PM,67.1,54.5,64,30.11,10.0,South,4.6,-,N/A,,Clear,190,2013-08-18 01:55:00
9:15 PM,66.9,54.1,63,30.11,10.0,South,4.6,-,N/A,,Clear,190,2013-08-18 02:15:00
9:35 PM,64.8,54.1,68,30.11,10.0,South,4.6,-,N/A,,Clear,170,2013-08-18 02:35:00
9:55 PM,64.0,53.8,69,30.11,10.0,South,4.6,-,N/A,,Clear,170,2013-08-18 02:55:00
10:15 PM,63.5,53.6,70,30.11,10.0,South,4.6,-,N/A,,Scattered Clouds,180,2013-08-18 03:15:00
10:35 PM,62.6,53.6,72,30.12,10.0,South,3.5,-,N/A,,Scattered Clouds,180,2013-08-18 03:35:00
10:55 PM,61.7,53.2,74,30.11,10.0,SSE,3.5,-,N/A,,Scattered Clouds,160,2013-08-18 03:55:00
11:15 PM,60.6,52.9,76,30.11,10.0,SSE,4.6,-,N/A,,Scattered Clouds,160,2013-08-18 04:15:00
11:34 PM,60.1,52.9,77,30.11,10.0,SSE,4.6,-,N/A,,Mostly Cloudy,160,2013-08-18 04:34:00
11:55 PM,59.2,52.7,79,30.12,10.0,SSE,5.8,-,N/A,,Scattered Clouds,160,2013-08-18 04:55:00